Location: Aula-Vintri
(58.3875°N, 22.4322°E)
Time: 21:37:44
(UTC+00:00)

MONITOR-E - Pass Details

Date: 13 October 2019
Orbit: 343 x 346 km, 97.1° (Epoch: 16 November)

Event Time Altitude Azimuth Distance (km) Brightness Sun altitude
Exits shadow 17:33:37 20° 177° (S) 908 5.8 -16.7°
Maximum altitude 17:35:25 66° 257° (WSW) 396 4.2 -17.0°
Drops below altitude 10° 17:38:16 10° 341° (NNW) 1,344 7.2 -17.3°
Sets 17:40:13 0° 344° (NNW) 2,195 8.3 -17.6°
